Simultaneous Nadir Overpasses (SNOs) Predictions

Prediction of SNOs between GOES-14 and AQUA Satellite Orbit:

Table of predicted SNOs for the next 14.0 days since TLE Epoch: 7/24/2021
Index Date Time (GOES-14) GOES-14 Lat,Lon AQUA Lat,Lon Distance(km) Time Diff (sec)
1 07/24/2021 08:29:37 -0.28,-104.12 -0.45,-103.27 95.76 80
2 07/24/2021 20:48:23 0.30,-104.34 -0.56,-108.49 471.03 80
3 07/26/2021 08:17:26 -0.27,-104.12 -1.07,-100.32 432.27 80
4 07/26/2021 20:36:12 0.30,-104.35 0.06,-105.53 134.09 80
5 07/28/2021 20:26:41 0.30,-104.36 0.69,-102.58 203.23 80
6 07/29/2021 08:47:55 -0.33,-104.15 0.43,-107.73 406.59 80
7 07/31/2021 08:35:44 -0.32,-104.16 -0.21,-104.77 69.29 80
8 08/02/2021 08:20:54 -0.32,-104.17 -0.85,-101.82 267.90 80
9 08/02/2021 20:42:18 0.35,-104.38 -0.22,-107.02 300.60 80
10 08/04/2021 20:32:47 0.35,-104.38 0.43,-104.07 36.51 80
11 08/06/2021 20:20:35 0.35,-104.39 1.03,-101.10 373.65 80
